Jackson, MI

1:04 PM EDT on October 20, 2019 (GMT -0400)
Jackson County-Reynolds

Weather History for KJXN - August, 2019

Change the Weather History Date:

Saturday, August 3, 2019

  Actual Average Record
Temperature  
Mean Temperature 68 °F 71 °F  
Max Temperature 84 °F 81 °F 96 °F (1964)
Min Temperature 52 °F 60 °F 42 °F (1965)
Degree Days  
Heating Degree Days 0 0  
Month to date heating degree days 0 0  
Since 1 June heating degree days 58 66  
Since 1 July heating degree days 0 11  
Cooling Degree Days 3 6  
Month to date cooling degree days 7 18  
Year to date cooling degree days 412 383  
Since 1 June cooling degree days 402 346  
Growing Degree Days 19 (Base 50)    
Moisture  
Dew Point 59 °F    
Average Humidity 72    
Maximum Humidity 100    
Minimum Humidity 43    
Precipitation  
Precipitation 0.00 in 0.12 in 1.38 in (2003)
Month to date precipitation 0.00 0.35  
Year to date precipitation 20.19 17.80  
Sea Level Pressure  
Sea Level Pressure 30.07 in    
Wind  
Wind Speed 3 mph (West)    
Max Wind Speed 9 mph    
Max Gust Speed 15 mph    
Visibility 10 miles    
Events      
T = Trace of Precipitation, MM = Missing Value Source: NWS Daily Summary

Daily Weather History Graph

Daily Weather History Graph

Search for Another Location

Airport or City:

Astronomy

Aug. 03, 2019 Rise Set
Actual Time 6:32 AM EDT 8:54 PM EDT
Civil Twilight 6:00 AM EDT 9:26 PM EDT
Nautical Twilight 5:21 AM EDT 10:05 PM EDT
Astronomical Twilight 4:38 AM EDT 10:48 PM EDT
Moon 9:26 AM EDT (8/3) 10:56 PM EDT (8/3)
Length of Visible Light 15h 25m
Length of Day
14h 22m
Waxing Crescent, 10% of the Moon is Illuminated
Aug 3
Waxing Crescent
Aug 7
First Quarter
Aug 15
Full
Aug 23
Last Quarter
Aug 30
New

Hourly Weather History & Observations

Time (EDT) Temp. Heat Index Dew Point Humidity Pressure Visibility Wind Dir Wind Speed Gust Speed Precip Events Conditions
12:56 AM 57.0 °F - 55.9 °F 96% 30.12 in 10.0 mi Calm Calm - N/A   Clear
1:56 AM 55.0 °F - 55.0 °F 100% 30.11 in 10.0 mi SW 3.5 mph - N/A   Clear
3:56 AM 55.0 °F - 54.0 °F 96% 30.11 in 10.0 mi Calm Calm - N/A   Clear
4:56 AM 55.0 °F - 54.0 °F 96% 30.11 in 10.0 mi Calm Calm - N/A   Clear
5:56 AM 54.0 °F - 54.0 °F 100% 30.10 in 10.0 mi Calm Calm - N/A   Clear
6:56 AM 54.0 °F - 54.0 °F 100% 30.11 in 10.0 mi Calm Calm - N/A   Clear
7:56 AM 57.0 °F - 55.9 °F 96% 30.11 in 10.0 mi SW 3.5 mph - N/A   Clear
8:56 AM 68.0 °F - 62.1 °F 81% 30.11 in 10.0 mi Calm Calm - N/A   Clear
9:56 AM 73.9 °F - 55.9 °F 53% 30.11 in 10.0 mi NW 4.6 mph - N/A   Clear
10:56 AM 77.0 °F - 59.0 °F 54% 30.11 in 10.0 mi NW 4.6 mph - N/A   Clear
11:56 AM 80.1 °F 80.7 °F 59.0 °F 48% 30.10 in 10.0 mi WNW 5.8 mph - N/A   Clear
12:56 PM 81.0 °F 81.6 °F 60.1 °F 49% 30.09 in 10.0 mi North - - N/A   Clear
1:56 PM 84.0 °F 83.8 °F 59.0 °F 43% 30.07 in 10.0 mi North 4.6 mph - N/A   Clear
2:56 PM 82.9 °F 82.8 °F 59.0 °F 44% 30.06 in 10.0 mi North 4.6 mph - N/A   Clear
3:56 PM 84.0 °F 84.0 °F 60.1 °F 44% 30.05 in 10.0 mi Variable 6.9 mph - N/A   Clear
4:56 PM 84.0 °F 84.4 °F 61.0 °F 46% 30.03 in 10.0 mi WSW 5.8 mph - N/A   Clear
5:56 PM 84.0 °F 84.4 °F 61.0 °F 46% 30.02 in 10.0 mi Variable 4.6 mph - N/A   Clear
6:56 PM 82.0 °F 83.0 °F 62.1 °F 51% 30.02 in 10.0 mi WSW 6.9 mph - N/A   Clear
7:56 PM 79.0 °F - 64.0 °F 60% 30.02 in 10.0 mi WSW 3.5 mph - N/A   Clear
8:56 PM 73.9 °F - 64.0 °F 71% 30.01 in 10.0 mi SSW 3.5 mph - N/A   Clear
9:56 PM 75.0 °F - 63.0 °F 66% 30.02 in 10.0 mi Calm Calm - N/A   Clear
10:56 PM 73.0 °F - 61.0 °F 66% 30.03 in 10.0 mi Calm Calm - N/A   Clear
11:56 PM 66.9 °F - 62.1 °F 84% 30.04 in 10.0 mi Calm Calm - N/A   Clear